| time (UTC) | temp F | wind direction | speed knots | gust knots | rain 1hr in | rain 24hr in | rain mn in | humidity % | barometer mb |
| 20260508100734 | 61 | 268 | 1.7 | 1.7 | 0.00 | 0.00 | 8.26 | 81 | 1015.7 |
| 20260508100234 | 61 | 274 | 0.0 | 0.0 | 0.00 | 0.00 | 8.26 | 83 | 1015.8 |
| 20260508095729 | 61 | 274 | 0.9 | 0.9 | 0.00 | 0.00 | 8.26 | 83 | 1015.7 |
| 20260508095229 | 61 | 300 | 1.7 | 2.6 | 0.00 | 0.00 | 8.26 | 84 | 1015.8 |
| 20260508094531 | 61 | 295 | 2.6 | 2.6 | 0.00 | 0.00 | 8.26 | 84 | 1015.8 |
| 20260508093824 | 61 | 274 | 1.7 | 2.6 | 0.00 | 0.00 | 8.26 | 84 | 1016.0 |
| 20260508092840 | 62 | 291 | 1.7 | 2.6 | 0.00 | 0.00 | 8.26 | 84 | 1015.8 |
| 20260508092340 | 62 | 296 | 2.6 | 6.1 | 0.00 | 0.00 | 8.26 | 82 | 1015.9 |
| 20260508091722 | 62 | 294 | 1.7 | 1.7 | 0.00 | 0.00 | 8.26 | 83 | 1015.8 |
| 20260508091222 | 61 | 263 | 1.7 | 2.6 | 0.00 | 0.00 | 8.26 | 83 | 1015.6 |
| 20260508090722 | 61 | 283 | 0.9 | 0.9 | 0.00 | 0.00 | 8.26 | 83 | 1015.6 |
| 20260508085813 | 61 | 255 | 0.9 | 1.7 | 0.00 | 0.00 | 8.26 | 83 | 1015.4 |
| 20260508085112 | 61 | 289 | 0.9 | 0.9 | 0.00 | 0.00 | 8.26 | 84 | 1015.6 |
| 20260508084612 | 61 | 285 | 0.9 | 1.7 | 0.00 | 0.00 | 8.26 | 84 | 1015.5 |
| 20260508084112 | 61 | 286 | 0.9 | 0.9 | 0.00 | 0.00 | 8.26 | 84 | 1015.1 |
| 20260508083612 | 61 | 299 | 2.6 | 4.3 | 0.00 | 0.00 | 8.26 | 84 | 1015.2 |
| 20260508083112 | 61 | 285 | 0.9 | 0.9 | 0.00 | 0.00 | 8.26 | 84 | 1015.2 |
| 20260508082612 | 61 | 299 | 0.9 | 0.9 | 0.00 | 0.00 | 8.26 | 84 | 1015.1 |
| 20260508082112 | 61 | 288 | 1.7 | 1.7 | 0.00 | 0.00 | 8.26 | 84 | 1015.1 |
| 20260508081612 | 61 | 288 | 0.0 | 0.0 | 0.00 | 0.00 | 8.26 | 85 | 1015.3 |
| 20260508080546 | 60 | 295 | 1.7 | 1.7 | 0.00 | 0.00 | 8.26 | 85 | 1015.4 |
| 20260508075713 | 61 | 326 | 3.5 | 4.3 | 0.00 | 0.00 | 8.26 | 86 | 1014.9 |
| 20260508075213 | 61 | 285 | 1.7 | 2.6 | 0.00 | 0.00 | 8.26 | 86 | 1014.8 |
| 20260508074622 | 61 | 295 | 1.7 | 1.7 | 0.00 | 0.00 | 8.26 | 86 | 1014.7 |
| 20260508074122 | 61 | 281 | 3.5 | 5.2 | 0.00 | 0.00 | 8.26 | 85 | 1014.6 |
| 20260508073148 | 61 | 304 | 1.7 | 2.6 | 0.00 | 0.00 | 8.26 | 85 | 1014.2 |
| 20260508072648 | 61 | 314 | 0.9 | 0.9 | 0.00 | 0.00 | 8.26 | 85 | 1014.3 |
| 20260508072148 | 61 | 298 | 2.6 | 2.6 | 0.00 | 0.00 | 8.26 | 85 | 1014.3 |
| 20260508071648 | 61 | 272 | 2.6 | 4.3 | 0.00 | 0.00 | 8.26 | 85 | 1014.2 |
| 20260508071148 | 61 | 330 | 0.9 | 1.7 | 0.00 | 0.00 | 8.26 | 86 | 1014.2 |
| 20260508070648 | 61 | 294 | 2.6 | 2.6 | 0.00 | 0.00 | 8.26 | 86 | 1014.3 |
| 20260508070148 | 60 | 284 | 1.7 | 2.6 | 0.00 | 0.00 | 8.26 | 86 | 1014.2 |
| 20260508065648 | 60 | 281 | 1.7 | 1.7 | 0.00 | 0.00 | 8.26 | 86 | 1014.3 |
| 20260508065148 | 60 | 304 | 2.6 | 2.6 | 0.00 | 0.00 | 8.26 | 86 | 1014.2 |
| 20260508064648 | 60 | 286 | 0.9 | 1.7 | 0.00 | 0.00 | 8.26 | 86 | 1014.1 |
| 20260508064148 | 59 | 249 | 1.7 | 2.6 | 0.00 | 0.00 | 8.26 | 86 | 1014.2 |
| 20260508063648 | 60 | 298 | 3.5 | 4.3 | 0.00 | 0.00 | 8.26 | 87 | 1014.0 |
| 20260508063148 | 59 | 344 | 0.0 | 0.9 | 0.00 | 0.00 | 8.26 | 88 | 1014.2 |
| 20260508062648 | 59 | 296 | 0.9 | 1.7 | 0.00 | 0.00 | 8.26 | 88 | 1014.0 |
| 20260508062148 | 59 | 293 | 0.9 | 0.9 | 0.00 | 0.00 | 8.26 | 89 | 1014.0 |
| 20260508061648 | 59 | 303 | 1.7 | 2.6 | 0.00 | 0.00 | 8.26 | 89 | 1013.9 |
| 20260508061148 | 59 | 299 | 2.6 | 4.3 | 0.00 | 0.00 | 8.26 | 90 | 1013.8 |
| 20260508060648 | 59 | 302 | 1.7 | 2.6 | 0.00 | 0.00 | 8.26 | 90 | 1013.9 |
| 20260508060148 | 59 | 297 | 2.6 | 2.6 | 0.00 | 0.00 | 8.26 | 90 | 1013.6 |
| 20260508055648 | 59 | 325 | 0.9 | 1.7 | 0.00 | 0.00 | 8.26 | 90 | 1013.6 |
| 20260508055148 | 58 | 304 | 1.7 | 1.7 | 0.00 | 0.00 | 8.26 | 90 | 1013.7 |
| 20260508054648 | 58 | 295 | 1.7 | 2.6 | 0.00 | 0.00 | 8.26 | 90 | 1013.5 |
| 20260508054148 | 58 | 282 | 1.7 | 1.7 | 0.00 | 0.00 | 8.26 | 90 | 1013.5 |
| 20260508053648 | 58 | 295 | 2.6 | 4.3 | 0.00 | 0.00 | 8.26 | 90 | 1013.3 |
| 20260508053148 | 58 | 314 | 1.7 | 2.6 | 0.00 | 0.00 | 8.26 | 90 | 1013.5 |
| 20260508052648 | 58 | 279 | 1.7 | 1.7 | 0.00 | 0.00 | 8.26 | 90 | 1013.5 |
| 20260508052148 | 58 | 319 | 4.3 | 7.0 | 0.00 | 0.00 | 8.26 | 90 | 1013.7 |
| 20260508051648 | 58 | 335 | 1.7 | 2.6 | 0.00 | 0.00 | 8.26 | 91 | 1013.5 |
| 20260508051148 | 58 | 330 | 2.6 | 2.6 | 0.00 | 0.00 | 8.26 | 91 | 1013.4 |
| 20260508050648 | 58 | 308 | 1.7 | 2.6 | 0.00 | 0.00 | 8.26 | 91 | 1013.3 |
| 20260508050148 | 58 | 317 | 1.7 | 2.6 | 0.00 | 0.00 | 8.26 | 91 | 1013.2 |
| 20260508045648 | 58 | 335 | 1.7 | 2.6 | 0.00 | 0.00 | 8.26 | 91 | 1013.1 |
| 20260508045148 | 58 | 270 | 1.7 | 2.6 | 0.00 | 0.00 | 8.26 | 91 | 1013.0 |
| 20260508044648 | 58 | 324 | 2.6 | 4.3 | 0.00 | 0.00 | 8.26 | 91 | 1013.3 |
| 20260508044148 | 58 | 289 | 1.7 | 1.7 | 0.00 | 0.00 | 8.26 | 91 | 1013.0 |
| 20260508043648 | 58 | 286 | 1.7 | 1.7 | 0.00 | 0.00 | 8.26 | 91 | 1013.1 |
| 20260508043148 | 58 | 303 | 1.7 | 1.7 | 0.00 | 0.00 | 8.26 | 91 | 1013.0 |
| 20260508042648 | 58 | 292 | 0.9 | 1.7 | 0.00 | 0.00 | 8.26 | 92 | 1013.0 |
| 20260508042148 | 58 | 299 | 1.7 | 1.7 | 0.00 | 0.00 | 8.26 | 92 | 1013.0 |
| 20260508041648 | 58 | 285 | 1.7 | 1.7 | 0.00 | 0.00 | 8.26 | 92 | 1013.0 |
| 20260508041148 | 58 | 300 | 0.9 | 1.7 | 0.00 | 0.00 | 8.26 | 92 | 1013.2 |
| 20260508040648 | 58 | 305 | 0.9 | 1.7 | 0.00 | 0.00 | 8.26 | 92 | 1013.0 |
| 20260508040148 | 58 | 305 | 0.9 | 1.7 | 0.00 | 0.00 | 8.26 | 92 | 1013.0 |
| 20260508035148 | 58 | 326 | 1.7 | 1.7 | 0.00 | 0.00 | 8.26 | 92 | 1012.7 |
| 20260508034648 | 58 | 292 | 1.7 | 1.7 | 0.00 | 0.00 | 8.26 | 92 | 1012.8 |
| 20260508034148 | 58 | 314 | 0.9 | 0.9 | 0.00 | 0.00 | 8.26 | 92 | 1012.7 |
| 20260508033648 | 58 | 310 | 1.7 | 2.6 | 0.00 | 0.00 | 8.26 | 92 | 1012.7 |
| 20260508033148 | 58 | 306 | 1.7 | 1.7 | 0.00 | 0.00 | 8.26 | 92 | 1012.9 |
| 20260508032648 | 58 | 323 | 0.9 | 0.9 | 0.00 | 0.00 | 8.26 | 92 | 1012.8 |
| 20260508032147 | 58 | 292 | 1.7 | 2.6 | 0.00 | 0.00 | 8.26 | 92 | 1012.9 |
| 20260508031648 | 58 | 287 | 1.7 | 1.7 | 0.00 | 0.00 | 8.26 | 93 | 1012.9 |
| 20260508031148 | 58 | 321 | 1.7 | 1.7 | 0.00 | 0.00 | 8.26 | 93 | 1013.0 |
| 20260508030647 | 58 | 319 | 1.7 | 1.7 | 0.00 | 0.00 | 8.26 | 93 | 1013.1 |
| 20260508030148 | 58 | 272 | 1.7 | 1.7 | 0.00 | 0.00 | 8.26 | 93 | 1013.3 |
| 20260508025648 | 58 | 286 | 1.7 | 2.6 | 0.00 | 0.00 | 8.26 | 93 | 1013.3 |
| 20260508025147 | 58 | 317 | 0.9 | 1.7 | 0.00 | 0.00 | 8.26 | 93 | 1013.5 |
| 20260508024647 | 58 | 315 | 0.9 | 1.7 | 0.00 | 0.00 | 8.26 | 93 | 1013.2 |
| 20260508024148 | 58 | 275 | 1.7 | 1.7 | 0.00 | 0.00 | 8.26 | 93 | 1013.2 |
| 20260508023648 | 58 | 285 | 1.7 | 1.7 | 0.00 | 0.00 | 8.26 | 93 | 1013.3 |
| 20260508023147 | 58 | 276 | 1.7 | 1.7 | 0.00 | 0.00 | 8.26 | 93 | 1013.2 |
| 20260508022647 | 58 | 277 | 2.6 | 5.2 | 0.00 | 0.00 | 8.26 | 93 | 1013.3 |
| 20260508021648 | 58 | 265 | 1.7 | 2.6 | 0.00 | 0.00 | 8.26 | 93 | 1013.5 |
| 20260508021148 | 58 | 274 | 1.7 | 1.7 | 0.00 | 0.00 | 8.26 | 93 | 1013.4 |
| 20260508020648 | 58 | 270 | 2.6 | 2.6 | 0.00 | 0.00 | 8.26 | 93 | 1013.5 |
| 20260508020149 | 58 | 293 | 1.7 | 2.6 | 0.00 | 0.00 | 8.26 | 93 | 1013.4 |
| 20260508015648 | 58 | 280 | 2.6 | 4.3 | 0.00 | 0.00 | 8.26 | 93 | 1013.5 |
| 20260508015148 | 58 | 316 | 1.7 | 2.6 | 0.00 | 0.00 | 8.26 | 93 | 1013.5 |
| 20260508014648 | 58 | 291 | 1.7 | 2.6 | 0.00 | 0.00 | 8.26 | 93 | 1013.5 |
| 20260508014148 | 58 | 297 | 2.6 | 2.6 | 0.00 | 0.00 | 8.26 | 93 | 1013.5 |
| 20260508013648 | 58 | 299 | 0.0 | 0.0 | 0.00 | 0.00 | 8.26 | 93 | 1013.6 |
| 20260508013148 | 58 | 300 | 0.9 | 0.9 | 0.00 | 0.00 | 8.26 | 93 | 1013.6 |
| 20260508012647 | 58 | 300 | 1.7 | 1.7 | 0.00 | 0.00 | 8.26 | 93 | 1013.8 |
| 20260508012148 | 58 | 301 | 1.7 | 2.6 | 0.00 | 0.00 | 8.26 | 93 | 1013.8 |
| 20260508011647 | 58 | 301 | 0.9 | 0.9 | 0.00 | 0.00 | 8.26 | 93 | 1013.8 |
| 20260508011148 | 58 | 301 | 1.7 | 1.7 | 0.00 | 0.00 | 8.26 | 93 | 1013.9 |
| 20260508010647 | 58 | 301 | 1.7 | 1.7 | 0.00 | 0.00 | 8.26 | 93 | 1013.9 |
| 20260508010147 | 58 | 301 | 0.9 | 1.7 | 0.00 | 0.00 | 8.26 | 93 | 1014.0 |
| 20260508005648 | 58 | 301 | 0.9 | 1.7 | 0.00 | 0.00 | 8.26 | 93 | 1014.0 |
| 20260508005148 | 58 | 301 | 0.9 | 0.9 | 0.00 | 0.00 | 8.26 | 93 | 1014.1 |
| 20260508004647 | 58 | 301 | 0.9 | 0.9 | 0.00 | 0.00 | 8.26 | 93 | 1014.3 |
| 20260508004147 | 59 | 301 | 0.9 | 0.9 | 0.00 | 0.00 | 8.26 | 92 | 1014.2 |
| 20260508003647 | 59 | 301 | 0.9 | 0.9 | 0.00 | 0.00 | 8.26 | 92 | 1014.3 |
| 20260508003147 | 59 | 301 | 1.7 | 1.7 | 0.00 | 0.00 | 8.26 | 92 | 1014.4 |
| 20260508002647 | 59 | 301 | 0.9 | 1.7 | 0.00 | 0.00 | 8.26 | 92 | 1014.5 |
| 20260508002147 | 59 | 301 | 1.7 | 1.7 | 0.00 | 0.00 | 8.26 | 92 | 1014.5 |
| 20260508001647 | 59 | 301 | 0.9 | 0.9 | 0.00 | 0.00 | 8.26 | 92 | 1014.7 |
| 20260508001147 | 59 | 301 | 0.9 | 1.7 | 0.00 | 0.00 | 8.26 | 92 | 1014.8 |
| 20260508000647 | 59 | 301 | 1.7 | 2.6 | 0.00 | 0.00 | 8.26 | 92 | 1014.7 |
| 20260508000147 | 59 | 301 | 0.9 | 1.7 | 0.00 | 0.00 | 8.26 | 92 | 1014.7 |
| 20260507235647 | 59 | 302 | 0.9 | 0.9 | 0.00 | 0.00 | 8.26 | 92 | 1014.7 |
| 20260507235147 | 59 | 301 | 1.7 | 2.6 | 0.00 | 0.00 | 8.26 | 92 | 1014.7 |
| 20260507234647 | 59 | 301 | 1.7 | 1.7 | 0.00 | 0.00 | 8.26 | 91 | 1015.0 |
| 20260507234147 | 59 | 301 | 0.0 | 0.0 | 0.00 | 0.00 | 8.26 | 91 | 1015.1 |
| 20260507233647 | 59 | 302 | 0.9 | 0.9 | 0.00 | 0.00 | 8.26 | 91 | 1015.0 |
| 20260507233147 | 59 | 302 | 1.7 | 2.6 | 0.00 | 0.00 | 8.26 | 91 | 1014.8 |
| 20260507232647 | 59 | 337 | 0.9 | 1.7 | 0.00 | 0.00 | 8.26 | 91 | 1014.8 |
| 20260507232147 | 59 | 298 | 0.9 | 0.9 | 0.00 | 0.00 | 8.26 | 91 | 1014.8 |
| 20260507231647 | 59 | 298 | 0.9 | 0.9 | 0.00 | 0.00 | 8.26 | 90 | 1015.1 |
| 20260507231147 | 59 | 298 | 1.7 | 1.7 | 0.00 | 0.00 | 8.26 | 90 | 1015.1 |
| 20260507230647 | 59 | 298 | 0.0 | 0.0 | 0.00 | 0.00 | 8.26 | 90 | 1015.3 |
| 20260507230147 | 60 | 299 | 1.7 | 1.7 | 0.00 | 0.00 | 8.26 | 89 | 1015.2 |
| 20260507225647 | 60 | 299 | 1.7 | 1.7 | 0.00 | 0.00 | 8.26 | 88 | 1015.0 |
| 20260507225147 | 60 | 299 | 1.7 | 1.7 | 0.00 | 0.00 | 8.26 | 87 | 1015.1 |
| 20260507224647 | 60 | 299 | 0.0 | 0.0 | 0.00 | 0.00 | 8.26 | 86 | 1015.0 |
| 20260507224147 | 61 | 299 | 1.7 | 2.6 | 0.00 | 0.00 | 8.26 | 84 | 1014.9 |
| 20260507223647 | 61 | 46 | 0.0 | 0.9 | 0.00 | 0.00 | 8.26 | 81 | 1014.9 |
| 20260507223147 | 61 | 48 | 0.0 | 0.0 | 0.00 | 0.00 | 8.26 | 81 | 1014.9 |
| 20260507222647 | 61 | 49 | 0.9 | 0.9 | 0.00 | 0.00 | 8.26 | 81 | 1015.1 |
| 20260507222147 | 61 | 54 | 0.9 | 1.7 | 0.00 | 0.00 | 8.26 | 81 | 1015.0 |
| 20260507221647 | 61 | 50 | 0.9 | 0.9 | 0.00 | 0.00 | 8.26 | 82 | 1014.7 |
| 20260507221147 | 61 | 64 | 0.9 | 0.9 | 0.00 | 0.00 | 8.26 | 82 | 1014.5 |
| 20260507220647 | 61 | 44 | 0.9 | 1.7 | 0.00 | 0.00 | 8.26 | 82 | 1014.7 |
| 20260507220147 | 61 | 60 | 0.9 | 1.7 | 0.00 | 0.00 | 8.26 | 83 | 1014.7 |
| 20260507215647 | 61 | 45 | 0.9 | 0.9 | 0.00 | 0.77 | 8.26 | 83 | 1014.6 |
| 20260507215147 | 60 | 70 | 0.0 | 0.9 | 0.00 | 0.77 | 8.26 | 85 | 1014.5 |
| 20260507214647 | 61 | 40 | 0.9 | 1.7 | 0.00 | 0.77 | 8.26 | 86 | 1014.6 |
| 20260507214147 | 61 | 46 | 0.9 | 0.9 | 0.00 | 0.77 | 8.26 | 86 | 1014.7 |
| 20260507213647 | 61 | 67 | 0.9 | 0.9 | 0.00 | 0.77 | 8.26 | 87 | 1014.7 |
| 20260507213147 | 61 | 56 | 0.9 | 0.9 | 0.00 | 0.77 | 8.26 | 88 | 1014.5 |
| 20260507212647 | 61 | 46 | 0.9 | 0.9 | 0.00 | 0.77 | 8.26 | 88 | 1014.7 |
| 20260507211647 | 61 | 39 | 1.7 | 1.7 | 0.00 | 0.77 | 8.26 | 88 | 1014.5 |
| 20260507211147 | 61 | 32 | 0.0 | 0.0 | 0.00 | 0.77 | 8.26 | 87 | 1014.5 |
| 20260507210647 | 61 | 36 | 1.7 | 1.7 | 0.00 | 0.77 | 8.26 | 87 | 1014.6 |
| 20260507210147 | 61 | 49 | 0.9 | 1.7 | 0.00 | 0.77 | 8.26 | 87 | 1014.4 |
| 20260507205647 | 61 | 68 | 4.3 | 5.2 | 0.00 | 0.77 | 8.26 | 87 | 1014.4 |
| 20260507205147 | 61 | 42 | 0.9 | 0.9 | 0.00 | 0.77 | 8.26 | 87 | 1014.6 |
| 20260507204647 | 61 | 38 | 0.9 | 0.9 | 0.00 | 0.77 | 8.26 | 87 | 1014.6 |
| 20260507204147 | 61 | 96 | 1.7 | 2.6 | 0.00 | 0.77 | 8.26 | 87 | 1014.6 |
| 20260507203647 | 61 | 80 | 1.7 | 2.6 | 0.00 | 0.77 | 8.26 | 87 | 1014.5 |
| 20260507203147 | 61 | 52 | 1.7 | 1.7 | 0.00 | 0.77 | 8.26 | 87 | 1014.3 |
| 20260507202647 | 61 | 61 | 0.9 | 0.9 | 0.00 | 0.77 | 8.26 | 86 | 1014.4 |
| 20260507202147 | 61 | 31 | 2.6 | 6.1 | 0.00 | 0.77 | 8.26 | 86 | 1014.5 |
| 20260507201647 | 61 | 28 | 3.5 | 5.2 | 0.00 | 0.77 | 8.26 | 87 | 1014.5 |
| 20260507201147 | 61 | 356 | 0.9 | 1.7 | 0.00 | 0.77 | 8.26 | 87 | 1014.4 |
| 20260507200647 | 60 | 350 | 3.5 | 4.3 | 0.00 | 0.77 | 8.26 | 87 | 1014.5 |
| 20260507200147 | 60 | 344 | 1.7 | 1.7 | 0.00 | 0.77 | 8.26 | 87 | 1014.6 |
| 20260507195647 | 60 | 11 | 1.7 | 1.7 | 0.00 | 0.77 | 8.26 | 87 | 1014.4 |
| 20260507195147 | 59 | 34 | 0.9 | 1.7 | 0.00 | 0.77 | 8.26 | 87 | 1014.4 |
| 20260507194647 | 59 | 34 | 1.7 | 1.7 | 0.00 | 0.77 | 8.26 | 89 | 1014.1 |
| 20260507194147 | 59 | 358 | 1.7 | 2.6 | 0.00 | 0.77 | 8.26 | 90 | 1013.9 |
| 20260507193647 | 59 | 90 | 2.6 | 4.3 | 0.00 | 0.77 | 8.26 | 90 | 1013.8 |
| 20260507193147 | 59 | 343 | 0.9 | 1.7 | 0.00 | 0.77 | 8.26 | 91 | 1013.7 |
| 20260507192647 | 59 | 71 | 4.3 | 6.1 | 0.00 | 0.77 | 8.26 | 92 | 1013.6 |
| 20260507192147 | 59 | 47 | 0.9 | 0.9 | 0.00 | 0.77 | 8.26 | 93 | 1013.4 |
| 20260507191647 | 59 | 68 | 2.6 | 4.3 | 0.00 | 0.77 | 8.26 | 93 | 1013.3 |
| 20260507191147 | 59 | 89 | 3.5 | 4.3 | 0.00 | 0.77 | 8.26 | 93 | 1013.3 |
| 20260507190647 | 59 | 55 | 3.5 | 5.2 | 0.00 | 0.77 | 8.26 | 94 | 1013.2 |
| 20260507190147 | 59 | 76 | 4.3 | 5.2 | 0.00 | 0.77 | 8.26 | 94 | 1013.4 |
| 20260507185647 | 59 | 33 | 1.7 | 2.6 | 0.00 | 0.77 | 8.26 | 94 | 1013.3 |
| 20260507185147 | 58 | 48 | 1.7 | 2.6 | 0.00 | 0.77 | 8.26 | 94 | 1013.3 |
| 20260507184647 | 58 | 66 | 1.7 | 2.6 | 0.00 | 0.77 | 8.26 | 94 | 1013.2 |
| 20260507183753 | 58 | 29 | 3.5 | 4.3 | 0.07 | 0.77 | 8.26 | 95 | 1013.3 |
| 20260507182556 | 59 | 22 | 2.6 | 4.3 | 0.00 | 0.76 | 8.26 | 95 | 1013.0 |
| 20260507182056 | 59 | 12 | 1.7 | 1.7 | 0.05 | 0.76 | 8.26 | 95 | 1013.0 |
| 20260507181420 | 59 | 344 | 4.3 | 7.0 | 0.16 | 0.76 | 8.26 | 95 | 1013.1 |
| 20260507180920 | 59 | 333 | 3.5 | 4.3 | 0.31 | 0.75 | 8.26 | 95 | 1012.9 |
| 20260507180420 | 59 | 11 | 1.7 | 2.6 | 0.31 | 0.73 | 8.26 | 95 | 1012.6 |
| 20260507175920 | 59 | 359 | 2.6 | 2.6 | 0.31 | 0.71 | 8.26 | 95 | 1012.7 |
| 20260507174534 | 59 | 357 | 2.6 | 4.3 | 0.47 | 0.65 | 8.26 | 94 | 1012.7 |
| 20260507174034 | 59 | 321 | 3.5 | 4.3 | 0.52 | 0.63 | 8.26 | 94 | 1012.8 |
| 20260507173534 | 59 | 352 | 1.7 | 1.7 | 0.31 | 0.58 | 8.26 | 94 | 1012.6 |
| 20260507173034 | 62 | 318 | 2.6 | 4.3 | 0.14 | 0.54 | 8.26 | 94 | 1012.6 |
| 20260507172534 | 62 | 43 | 0.9 | 0.9 | 0.12 | 0.53 | 8.26 | 94 | 1012.7 |
| 20260507172034 | 62 | 49 | 1.7 | 1.7 | 0.16 | 0.52 | 8.26 | 94 | 1012.7 |
| 20260507171534 | 62 | 56 | 0.0 | 0.0 | 0.24 | 0.51 | 8.26 | 94 | 1012.5 |
| 20260507171034 | 62 | 54 | 1.7 | 2.6 | 0.24 | 0.49 | 8.26 | 94 | 1012.3 |
| 20260507170534 | 62 | 86 | 1.7 | 1.7 | 0.19 | 0.47 | 8.26 | 94 | 1012.3 |
| 20260507170034 | 62 | 76 | 2.6 | 4.3 | 0.12 | 0.45 | 8.26 | 93 | 1012.3 |
| 20260507165534 | 63 | 46 | 1.7 | 2.6 | 0.05 | 0.44 | 8.26 | 93 | 1012.5 |
| 20260507165034 | 62 | 59 | 1.7 | 2.6 | 0.00 | 0.43 | 8.26 | 93 | 1012.2 |
| 20260507164534 | 63 | 69 | 1.7 | 1.7 | 0.00 | 0.43 | 8.26 | 93 | 1012.4 |
| 20260507164034 | 63 | 73 | 1.7 | 1.7 | 0.00 | 0.43 | 8.26 | 93 | 1012.3 |
| 20260507163534 | 62 | 77 | 2.6 | 2.6 | 0.00 | 0.43 | 8.26 | 92 | 1012.1 |
| 20260507163034 | 62 | 66 | 0.0 | 0.0 | 0.00 | 0.43 | 8.26 | 92 | 1012.0 |
| 20260507162534 | 62 | 71 | 3.5 | 4.3 | 0.00 | 0.43 | 8.26 | 92 | 1012.0 |
| 20260507162034 | 62 | 85 | 1.7 | 1.7 | 0.00 | 0.43 | 8.26 | 92 | 1012.0 |
| 20260507161534 | 62 | 91 | 0.9 | 1.7 | 0.07 | 0.43 | 8.26 | 92 | 1012.0 |
| 20260507161034 | 62 | 105 | 3.5 | 4.3 | 0.07 | 0.43 | 8.26 | 92 | 1011.9 |
| 20260507160534 | 62 | 86 | 4.3 | 5.2 | 0.05 | 0.42 | 8.26 | 92 | 1011.8 |
| 20260507160034 | 62 | 77 | 1.7 | 4.3 | 0.05 | 0.42 | 8.26 | 92 | 1011.6 |
| 20260507155534 | 62 | 90 | 4.3 | 7.0 | 0.07 | 0.41 | 8.26 | 92 | 1012.0 |
| 20260507155034 | 62 | 118 | 3.5 | 5.2 | 0.07 | 0.41 | 8.26 | 93 | 1012.0 |
| 20260507154534 | 62 | 75 | 2.6 | 2.6 | 0.07 | 0.40 | 8.26 | 93 | 1011.8 |
| 20260507154034 | 63 | 119 | 0.9 | 0.9 | 0.31 | 0.40 | 8.26 | 93 | 1011.8 |
| 20260507153534 | 63 | 85 | 2.6 | 6.1 | 0.78 | 0.39 | 8.26 | 93 | 1011.6 |
| 20260507153034 | 63 | 105 | 3.5 | 4.3 | 0.71 | 0.35 | 8.26 | 92 | 1011.5 |
| 20260507152534 | 63 | 87 | 3.5 | 5.2 | 0.35 | 0.27 | 8.26 | 91 | 1011.8 |
| 20260507152034 | 63 | 110 | 4.3 | 6.1 | 0.12 | 0.23 | 8.26 | 89 | 1011.7 |
| 20260507151534 | 64 | 85 | 6.1 | 7.8 | 0.00 | 0.21 | 8.26 | 88 | 1012.0 |
| 20260507151034 | 64 | 79 | 6.1 | 7.0 | 0.00 | 0.21 | 8.26 | 88 | 1011.8 |
| 20260507150534 | 65 | 86 | 4.3 | 8.7 | 0.00 | 0.21 | 8.26 | 89 | 1011.8 |
| 20260507150034 | 65 | 110 | 3.5 | 5.2 | 0.00 | 0.21 | 8.26 | 89 | 1011.6 |
| 20260507145534 | 64 | 100 | 1.7 | 2.6 | 0.00 | 0.21 | 8.26 | 90 | 1011.8 |
| 20260507145034 | 65 | 72 | 1.7 | 1.7 | 0.00 | 0.21 | 8.26 | 90 | 1011.6 |
| 20260507144534 | 64 | 63 | 3.5 | 4.3 | 0.00 | 0.21 | 8.26 | 90 | 1011.8 |
| 20260507144034 | 64 | 69 | 4.3 | 5.2 | 0.07 | 0.21 | 8.26 | 91 | 1011.5 |
| 20260507143534 | 64 | 81 | 3.5 | 4.3 | 0.07 | 0.21 | 8.26 | 91 | 1011.6 |
| 20260507143034 | 64 | 97 | 3.5 | 5.2 | 0.00 | 0.20 | 8.26 | 91 | 1011.7 |
| 20260507142534 | 64 | 109 | 1.7 | 2.6 | 0.00 | 0.20 | 8.26 | 92 | 1011.6 |
| 20260507142034 | 64 | 72 | 1.7 | 2.6 | 0.00 | 0.20 | 8.26 | 92 | 1011.7 |
| 20260507141534 | 64 | 73 | 0.9 | 1.7 | 0.00 | 0.20 | 8.26 | 92 | 1011.8 |
| 20260507141034 | 64 | 78 | 0.9 | 2.6 | 0.05 | 0.20 | 8.26 | 92 | 1011.7 |
| 20260507140534 | 63 | 78 | 0.9 | 1.7 | 0.05 | 0.20 | 8.26 | 93 | 1011.7 |
| 20260507140034 | 64 | 62 | 0.0 | 0.0 | 0.00 | 0.19 | 8.26 | 93 | 1011.6 |
| 20260507135534 | 64 | 20 | 2.6 | 2.6 | 0.00 | 0.19 | 8.26 | 93 | 1011.6 |
| 20260507135034 | 64 | 36 | 0.9 | 0.9 | 0.00 | 0.19 | 8.26 | 93 | 1011.7 |
| 20260507134534 | 64 | 35 | 0.9 | 0.9 | 0.12 | 0.19 | 8.26 | 93 | 1011.7 |
| 20260507134034 | 63 | 45 | 0.9 | 0.9 | 0.19 | 0.19 | 8.26 | 92 | 1011.7 |
| 20260507133534 | 62 | 73 | 0.9 | 1.7 | 0.26 | 0.17 | 8.26 | 92 | 1011.9 |
| 20260507133034 | 63 | 115 | 2.6 | 4.3 | 0.24 | 0.16 | 8.26 | 92 | 1012.2 |
| 20260507132534 | 64 | 83 | 0.9 | 1.7 | 0.24 | 0.14 | 8.26 | 92 | 1012.3 |
| 20260507132034 | 64 | 85 | 3.5 | 5.2 | 0.24 | 0.12 | 8.26 | 91 | 1012.4 |
| 20260507131534 | 64 | 78 | 1.7 | 2.6 | 0.24 | 0.10 | 8.26 | 91 | 1012.1 |
| 20260507131034 | 64 | 87 | 5.2 | 7.8 | 0.19 | 0.08 | 8.26 | 90 | 1012.4 |
| 20260507130534 | 64 | 61 | 4.3 | 7.0 | 0.07 | 0.06 | 8.26 | 89 | 1012.4 |
| 20260507130034 | 64 | 63 | 1.7 | 2.6 | 0.05 | 0.05 | 8.26 | 89 | 1012.4 |
| 20260507125534 | 64 | 56 | 4.3 | 5.2 | 0.12 | 0.05 | 8.26 | 89 | 1012.2 |
| 20260507125034 | 64 | 63 | 5.2 | 7.0 | 0.19 | 0.04 | 8.26 | 88 | 1012.4 |
| 20260507124534 | 65 | 83 | 1.7 | 1.7 | 0.19 | 0.03 | 8.26 | 87 | 1012.5 |
| 20260507124034 | 65 | 47 | 4.3 | 5.2 | 0.07 | 0.01 | 8.26 | 86 | 1012.4 |
| 20260507123534 | 65 | 28 | 4.3 | 7.8 | 0.00 | 0.00 | 8.26 | 85 | 1012.4 |
| 20260507123034 | 66 | 64 | 1.7 | 1.7 | 0.00 | 0.00 | 8.26 | 83 | 1012.6 |
| 20260507122534 | 66 | 68 | 7.0 | 11.3 | 0.00 | 0.00 | 8.26 | 81 | 1012.6 |
| 20260507122034 | 66 | 60 | 3.5 | 5.2 | 0.00 | 0.00 | 8.26 | 81 | 1012.5 |
| 20260507121534 | 66 | 75 | 2.6 | 5.2 | 0.00 | 0.00 | 8.26 | 81 | 1012.4 |
| 20260507121034 | 66 | 46 | 2.6 | 5.2 | 0.00 | 0.00 | 8.26 | 80 | 1012.2 |
| 20260507120534 | 66 | 98 | 2.6 | 2.6 | 0.00 | 0.00 | 8.26 | 80 | 1012.5 |
| 20260507120034 | 66 | 82 | 1.7 | 4.3 | 0.00 | 0.00 | 8.26 | 80 | 1012.5 |
| 20260507115534 | 66 | 54 | 5.2 | 7.0 | 0.00 | 0.00 | 8.26 | 80 | 1012.8 |
| 20260507115034 | 66 | 73 | 4.3 | 7.8 | 0.00 | 0.00 | 8.26 | 79 | 1012.5 |
| 20260507114534 | 66 | 72 | 4.3 | 7.0 | 0.00 | 0.00 | 8.26 | 78 | 1012.8 |
| 20260507114034 | 66 | 62 | 0.9 | 2.6 | 0.00 | 0.00 | 8.26 | 78 | 1012.7 |
| 20260507113534 | 66 | 56 | 4.3 | 5.2 | 0.00 | 0.00 | 8.26 | 78 | 1012.5 |
| 20260507113034 | 66 | 39 | 1.7 | 2.6 | 0.00 | 0.00 | 8.26 | 78 | 1012.7 |
| 20260507112534 | 67 | 63 | 6.1 | 7.8 | 0.00 | 0.00 | 8.26 | 77 | 1012.6 |
| 20260507112034 | 67 | 60 | 0.0 | 1.7 | 0.00 | 0.00 | 8.26 | 77 | 1012.6 |
| 20260507111534 | 67 | 82 | 5.2 | 8.7 | 0.00 | 0.00 | 8.26 | 77 | 1012.8 |
| 20260507111034 | 67 | 128 | 2.6 | 6.1 | 0.00 | 0.00 | 8.26 | 78 | 1013.0 |
| 20260507110534 | 66 | 94 | 5.2 | 7.0 | 0.00 | 0.00 | 8.26 | 78 | 1012.9 |
| 20260507110034 | 67 | 76 | 4.3 | 5.2 | 0.00 | 0.00 | 8.26 | 78 | 1012.8 |
| 20260507105534 | 67 | 74 | 1.7 | 4.3 | 0.00 | 0.00 | 8.26 | 78 | 1012.9 |
| 20260507105034 | 66 | 35 | 1.7 | 1.7 | 0.00 | 0.00 | 8.26 | 79 | 1012.9 |
| 20260507104534 | 66 | 69 | 1.7 | 2.6 | 0.00 | 0.00 | 8.26 | 80 | 1013.3 |
| 20260507104034 | 66 | 64 | 6.1 | 7.8 | 0.00 | 0.00 | 8.26 | 80 | 1013.1 |
| 20260507103534 | 66 | 86 | 5.2 | 7.0 | 0.00 | 0.00 | 8.26 | 80 | 1013.1 |
| 20260507103034 | 66 | 63 | 2.6 | 4.3 | 0.00 | 0.00 | 8.26 | 80 | 1013.1 |
| 20260507102534 | 66 | 47 | 1.7 | 4.3 | 0.00 | 0.00 | 8.26 | 80 | 1012.9 |
| 20260507102034 | 66 | 99 | 6.1 | 8.7 | 0.00 | 0.00 | 8.26 | 81 | 1013.2 |
| 20260507101534 | 66 | 63 | 5.2 | 7.8 | 0.00 | 0.00 | 8.26 | 81 | 1013.0 |
| 20260507101034 | 66 | 76 | 6.1 | 9.6 | 0.00 | 0.00 | 8.26 | 81 | 1013.1 |